Weather in Arhara

Russia / Amur Oblast     49°25′20″N   130°05′13″E
В апреле 2022 года жителям России запретили посещать сайт meteo.paraplan.net по решению Генеральной прокуратуры. Аудитория сайта уменьшилась в 10 раз. Владельцы сайта не видят смысла в поддержке погодного сервера в таких условиях. Сайт будет закрыт в октябре.
temp.,
°C
wind,
m/s
gust,
m/s
humid.,
%
clouds,
%
prec.,
mm/h
press.,
hPa
HPBL,
m
25 september, sun
sun2500:00+8ssw11861 0.0 100910
03:00+7sse33805 0.0 100952
06:00+7se368149 0.0 101089
09:00+13sse695999 0.0 1008343
12:00+19sse710475 0.0 1007918
15:00+22s610435 0.0 10051974
18:00+17s48647 0.0 1005131
21:00+14sse5146992 0.0 1005308
26 september, mon
mon2600:00+14s4869100 0.0 1006211
03:00+11sw3483100 0.0 100772
06:00+9w613460 0.0 1011504
09:00+11w6104397 0.0 1012784
12:00+14w7933100 0.0 10121573
15:00+14w7933100 0.0 10122118
18:00+11nw3547100 0.0 101498
21:00+8w511625 0.0 1016461
27 september, tue
tue2700:00+4w22870 0.0 101633
03:00+3w11895 0.0 101610
06:00+3sse229072 0.0 101720
09:00+8sse34635 0.0 1016340
12:00+13sse4541100 0.0 1013920
15:00+16se5849100 0.0 1009973
18:00+15sse6135140 0.0 1006341
21:00+14sse8165993 0.0 1004351
28 september, wed
wed2800:00+12sse5117497 0.0 1003201
03:00+10sse389127 0.0 1003134
06:00+11wsw1390100 0.0 100497
09:00+13nnw5852100 0.0 1006575
12:00+15nw6841100 0.0 10081083
15:00+14nw6740100 0.0 10091154
18:00+10nnw38525 0.0 1012198
21:00+6n22655 0.0 101418
29 september, thu
thu2900:00+5n33696 0.0 101442
03:00+5nne337070 0.0 101439
06:00+4ene2370100 0.0 101442
09:00+8e3560100 0.0 1013286
12:00+12e454592 0.0 1011819
15:00+9ne3584100 1.5 1010352
18:00+8ene4990100 0.9 1010336
21:00+8ne3794100 2.8 1009260